Location: Moscow
(55.7500°N, 37.5830°E)
Time: 15:02:47
(UTC+03:00)

ISS - Visible Passes

Search period start: 24 March 2019 00:00
Search period end: 03 April 2019 00:00
Orbit: 408 x 411 km, 51.6° (Epoch: 24 March)

Date Brightness Start Highest point End Pass type
(mag) Time Alt. Az. Time Alt. Az. Time Alt. Az.
24 Mar -2.1 20:01:08 10° SSW 20:03:27 18° SSE 20:04:21 16° SE visible
24 Mar -1.3 21:36:24 10° WSW 21:37:09 15° SW 21:37:09 15° SW visible
25 Mar -2.9 20:45:57 10° SW 20:48:51 32° SSE 20:48:51 32° SSE visible
26 Mar -2.6 19:55:36 10° SW 19:58:25 26° SSE 20:00:26 15° ESE visible
26 Mar -2.1 21:31:27 10° WSW 21:33:13 26° SW 21:33:13 26° SW visible
27 Mar -3.2 20:40:53 10° WSW 20:44:00 39° S 20:44:41 34° SE visible
27 Mar -0.9 22:17:11 10° W 22:17:27 12° WSW 22:17:27 12° WSW visible
28 Mar -2.9 19:50:22 10° SW 19:53:25 35° SSE 19:56:06 12° ESE visible
28 Mar -2.6 21:26:32 10° WSW 21:28:52 32° SW 21:28:52 32° SW visible
29 Mar -3.1 20:35:54 10° WSW 20:39:03 40° S 20:40:12 28° SE visible
29 Mar -1.1 22:12:25 10° WSW 22:12:58 13° WSW 22:12:58 13° WSW visible
30 Mar -3.1 19:45:17 10° WSW 19:48:25 40° S 19:51:31 10° ESE visible
30 Mar -2.5 21:21:40 10° W 21:24:16 29° SSW 21:24:16 29° SSW visible
31 Mar -2.9 20:30:57 10° WSW 20:34:01 35° S 20:35:33 22° SE visible
31 Mar -1.0 22:07:51 10° WSW 22:08:18 12° WSW 22:08:18 12° WSW visible
01 Apr -2.9 19:40:16 10° WSW 19:43:23 39° S 19:46:30 10° ESE visible
01 Apr -2.1 21:16:52 10° WSW 21:19:28 21° SSW 21:19:35 21° SSW visible
02 Apr -2.4 20:26:02 10° W 20:28:54 27° SSW 20:30:51 16° SSE visible
